Index of /assets/images.sixrevisions.com/2010/11

[ICO]NameLast modifiedSizeDescription

[DIR]Parent Directory  -  
[IMG]01-01_web_designers_code_ld_img.png31-Mar-2017 09:46 31K 
[IMG]01-02_web_designers_stocks_twitter.png31-Mar-2017 09:46 8.5K 
[IMG]01-03_web_designers_zeldman_tweet.png31-Mar-2017 09:46 7.0K 
[IMG]02-01_social_networking_connected.jpg31-Mar-2017 09:46 23K 
[IMG]03-01_wampserver_wordpress_ld_img.jpg31-Mar-2017 09:46 32K 
[IMG]03-02_wampserver.jpg31-Mar-2017 09:47 59K 
[IMG]03-03_wampserver_sourceforge.jpg31-Mar-2017 09:46 34K 
[IMG]03-04_wampserver_license_agreement.png31-Mar-2017 09:46 44K 
[IMG]03-05_wampserver_location.png31-Mar-2017 09:46 34K 
[IMG]03-06_wampserver_icons.png31-Mar-2017 09:46 32K 
[IMG]03-07_wampserver_recap.png31-Mar-2017 09:46 35K 
[IMG]03-08_wampserver_mail_function.png31-Mar-2017 09:46 26K 
[IMG]03-09_wampserver_finished.png31-Mar-2017 09:46 35K 
[IMG]03-10_wampserver_icon_taskbar.png31-Mar-2017 09:46 4.6K 
[IMG]03-11_wampserver_server_config.jpg31-Mar-2017 09:46 27K 
[IMG]03-12_wampserver_phpmyadmin_createdb.png31-Mar-2017 09:46 28K 
[IMG]03-13_wampserver_wordpress_install.jpg31-Mar-2017 09:46 26K 
[IMG]03-14_wampserver_runtheinstall.jpg31-Mar-2017 09:46 12K 
[IMG]03-15_wampserver_wordpress_success.jpg31-Mar-2017 09:46 13K 
[IMG]03-16_wampserver_wordpress_success2.jpg31-Mar-2017 09:47 47K 
[IMG]03-17_wamp_run_phpinfo.jpg31-Mar-2017 09:47 29K 
[IMG]03-18_wampserver_enable_mod_rewrite.jpg31-Mar-2017 09:47 50K 
[IMG]03-19_wampserver_new_user.png31-Mar-2017 09:47 25K 
[IMG]03-20_wampserver_live_user_prev.png31-Mar-2017 09:47 35K 
[IMG]03-21_wampserver_wpconfig.png31-Mar-2017 09:47 36K 
[IMG]03-22_wampserver_exportdb.png31-Mar-2017 09:47 42K 
[IMG]03-23_wampster_import.png31-Mar-2017 09:47 34K 
[IMG]04-01_launch_website_ld_img.jpg31-Mar-2017 09:47 13K 
[IMG]04-02_sitemapxmldotcom.png31-Mar-2017 09:47 4.8K 
[IMG]04-03_googleanalytics.png31-Mar-2017 09:47 34K 
[IMG]04-04_googlewebmastertools.png31-Mar-2017 09:47 43K 
[IMG]04-05_dmoz_suggest.png31-Mar-2017 09:47 10K 
[IMG]04-05_google_alerts.png31-Mar-2017 09:47 13K 
[IMG]04-06_uptimerobot.png31-Mar-2017 09:47 41K 
[IMG]04-07_google_alerts_first.png31-Mar-2017 09:47 12K 
[IMG]04-08_yslow.png31-Mar-2017 09:47 18K 
[IMG]05-01_php_conditional_statements_ld_img.jpg31-Mar-2017 09:47 20K 
[IMG]05-02_example_statement.png31-Mar-2017 09:47 2.1K 
[IMG]05-03_example_if.png31-Mar-2017 09:47 4.9K 
[IMG]05-04_example_else.png31-Mar-2017 09:47 6.0K 
[IMG]05-05_example_elseif.png31-Mar-2017 09:47 5.5K 
[IMG]05-06_example_goto.png31-Mar-2017 09:47 1.9K 
[IMG]05-07_example_switch.png31-Mar-2017 09:47 6.2K 
[IMG]06-01_blinksale_giveaway_ld_img.jpg31-Mar-2017 09:47 34K 
[IMG]06-02_dashboard.jpg31-Mar-2017 09:47 45K 
[IMG]06-03_estimates.jpg31-Mar-2017 09:47 38K 
[IMG]06-04_invoices.jpg31-Mar-2017 09:47 39K 
[IMG]06-05_instant_payment.jpg31-Mar-2017 09:47 37K 
[IMG]07-01_codemyconcept_giveaway_ld_img.jpg31-Mar-2017 09:47 25K 
[IMG]07-02_orderform.jpg31-Mar-2017 09:47 47K 
[IMG]07-03_mydish.jpg31-Mar-2017 09:47 60K 
[IMG]07-04_main_coast_properties.jpg31-Mar-2017 09:47 58K 
[IMG]07-05_amta.jpg31-Mar-2017 09:47 58K 
[IMG]07-06_dylan_mullins.jpg31-Mar-2017 09:47 18K 
[IMG]07-07_codemyconcept_team_members.jpg31-Mar-2017 09:47 28K 
[IMG]08-01_giveaway_campaignmonitor_books_ld_img.jpg31-Mar-2017 09:47 33K 
[IMG]08-02_giveaway_campaignmonitor_ss.jpg31-Mar-2017 09:47 27K 
[IMG]09-01_privacy_user_experience_ld_img.jpg31-Mar-2017 09:47 20K 
[IMG]09-02_paypal.jpg31-Mar-2017 09:47 38K 
[IMG]09-03_twitter_login.png31-Mar-2017 09:47 9.5K 
[IMG]09-04_analytics.png31-Mar-2017 09:47 28K 
[IMG]09-05_amazon_signup.jpg31-Mar-2017 09:47 29K 
[IMG]09-06_facebook_privacy.png31-Mar-2017 09:47 22K 
[IMG]09-07_emails.png31-Mar-2017 09:47 23K 
[IMG]10-01_chrome_extension_students_ld_img.jpg31-Mar-2017 09:47 33K 
[IMG]10-02_awesome_screen_capture.jpg31-Mar-2017 09:47 43K 
[IMG]10-03_webdeveloper.jpg31-Mar-2017 09:47 31K 
[IMG]10-04_window_resizer.jpg31-Mar-2017 09:47 21K 
[IMG]10-05_stay_focusd.jpg31-Mar-2017 09:47 46K 
[IMG]10-06_apture_highlights.jpg31-Mar-2017 09:47 61K 
[IMG]10-07_dayhiker.jpg31-Mar-2017 09:47 38K 
[IMG]10-08_diigo_webhighlighter.png31-Mar-2017 09:47 70K 
[IMG]10-09_citation_manager.jpg31-Mar-2017 09:47 49K 
[IMG]10-10_yoono.jpg31-Mar-2017 09:47 61K 
[IMG]10-11_chromey_calc.png31-Mar-2017 09:47 38K 
[IMG]10-12_em_calculator.png31-Mar-2017 09:47 25K 
[IMG]10-13_builtwith.jpg31-Mar-2017 09:47 60K 
[IMG]10-14_chrome_developer_tools.png31-Mar-2017 09:47 20K 
[IMG]11-01_webdesigners_vs_webdevelopers_ld_img.jpg31-Mar-2017 09:47 16K 
[IMG]11-02_webdesigners_vs_webdevelopers_infographic_small.jpg31-Mar-2017 09:47 81K 
[IMG]12-01_better_code_designs_ld_img.jpg31-Mar-2017 09:47 34K 
[IMG]12-02_template.jpg31-Mar-2017 09:47 37K 
[IMG]12-03_doctypes.png31-Mar-2017 09:47 19K 
[IMG]12-04_naming_conventions.jpg31-Mar-2017 09:47 13K 
[IMG]13-01_wordpress_common_functions_ld_img.png31-Mar-2017 09:47 4.4K 
[IMG]13-02_custom_fields_example.png31-Mar-2017 09:47 10K 
[IMG]14-01_cu3er_winner_announcement_ld_img.jpg31-Mar-2017 09:47 17K 
[IMG]14-02_cu3ber_giveaway_winners_mysql_query_results.png31-Mar-2017 09:47 39K 
[IMG]15-01_human_behavior_design_ld_img.jpg31-Mar-2017 09:47 27K 
[IMG]15-02_stumbleupon_fp.png31-Mar-2017 09:47 15K 
[IMG]15-03_digital_hierarchy_needs.jpg31-Mar-2017 09:47 17K 
[IMG]15-04_amazon_kindle_distinction.jpg31-Mar-2017 09:47 26K 
[IMG]15-05_useitdotcom.jpg31-Mar-2017 09:47 46K 
[IMG]15-06_yahoo_answers_block.png31-Mar-2017 09:47 17K 
[IMG]15-07_w3c_quiz.png31-Mar-2017 09:47 5.4K 
[IMG]15-08_mobile_devices_click.jpg31-Mar-2017 09:47 18K 
[IMG]15-09_pagenotfound.png31-Mar-2017 09:47 5.7K 
[IMG]15-10_glue.jpg31-Mar-2017 09:47 28K 
[IMG]15-11_positive_reinforcement.jpg31-Mar-2017 09:47 30K 
[IMG]16-01_howto_design_conference_ld_img.jpg31-Mar-2017 09:47 22K 
[IMG]16-02_ted_website.jpg31-Mar-2017 09:47 72K 
[IMG]16-03_adobemax_website.jpg31-Mar-2017 09:47 61K 
[IMG]16-04_tc_website.jpg31-Mar-2017 09:47 61K 
[IMG]16-05_ted.jpg31-Mar-2017 09:47 49K 
[IMG]16-06_adobe_max.jpg31-Mar-2017 09:47 39K 
[IMG]16-07_aigagain.png31-Mar-2017 09:47 28K 
[IMG]16-08_aneventapart.jpg31-Mar-2017 09:47 48K 
[IMG]16-09_howconference.png31-Mar-2017 09:47 57K 
[IMG]16-10_fowd_site.jpg31-Mar-2017 09:47 37K 
[IMG]16-11_sponsors.jpg31-Mar-2017 09:47 19K 
[IMG]16-12_speaker.jpg31-Mar-2017 09:47 22K 
[IMG]16-13_speakers_at_fowd.jpg31-Mar-2017 09:47 31K 
[IMG]16-14_adobe_max_convince_boss.jpg31-Mar-2017 09:47 39K 
[IMG]16-15_concession_stand.jpg31-Mar-2017 09:47 33K 
[IMG]16-16_new_york_skyline.jpg31-Mar-2017 09:47 43K 
[IMG]16-17_twitter_hash.png31-Mar-2017 09:47 14K 
[IMG]16-18_attendees.jpg31-Mar-2017 09:47 41K 
[IMG]17-01_web_designer_png_ld_img.jpg31-Mar-2017 09:47 39K 
[IMG]17-02_lossy_lossless.jpg31-Mar-2017 09:47 69K 
[IMG]17-03_png24_png8.jpg31-Mar-2017 09:47 47K 
[IMG]17-04_rss_png8.png31-Mar-2017 09:47 3.7K 
[IMG]17-05_rss_png24.png31-Mar-2017 09:47 5.7K 
[IMG]17-06_rss_gif.gif31-Mar-2017 09:47 4.2K 
[IMG]17-07_rss_png8.png31-Mar-2017 09:47 3.7K 
[IMG]17-08_rss_png24.png31-Mar-2017 09:47 5.4K 
[IMG]17-09_rss_gif.gif31-Mar-2017 09:47 3.7K 
[IMG]17-11_spring_flower_png24.png31-Mar-2017 09:47 67K 
[IMG]17-12_spring_flower_jpg.jpg31-Mar-2017 09:47 14K 
[IMG]17-13_spring_flower_png24.png31-Mar-2017 09:47 64K 
[IMG]17-14_spring_flower_jpg.jpg31-Mar-2017 09:47 14K 
[IMG]17-15_saveforweb_photoshop_colors.png31-Mar-2017 09:47 13K 
[IMG]17-16_png8_256colors.png31-Mar-2017 09:47 3.7K 
[IMG]17-17_png8_64colors.png31-Mar-2017 09:47 2.2K 
[IMG]17-18_png8_32colors.png31-Mar-2017 09:47 1.8K 
[IMG]17-19_png8_16colors.png31-Mar-2017 09:47 1.4K 
[IMG]17-20_search_png24.png31-Mar-2017 09:47 30K 
[IMG]17-21_search_png24_posterized.png31-Mar-2017 09:48 24K 
[IMG]18-01_faq_bandage_ld_img.jpg31-Mar-2017 09:47 17K 
[IMG]18-02_ebayhelp.jpg31-Mar-2017 09:47 34K 
[IMG]18-03_newegg_faq.png31-Mar-2017 09:48 32K 
[IMG]18-04_woot_faq.gif31-Mar-2017 09:48 81K 
[IMG]18-05_neweggcontact.jpg31-Mar-2017 09:48 24K 
[IMG]19-01_fat_free_webdesign_ld_img.jpg31-Mar-2017 09:48 20K 
[IMG]19-02_dell.jpg31-Mar-2017 09:48 27K 
[IMG]19-03_stock_photo_shake.jpg31-Mar-2017 09:48 22K 
[IMG]19-04_photo_good.jpg31-Mar-2017 09:48 23K 
[IMG]20-01_blinksale_winners_ld_img.jpg31-Mar-2017 09:48 41K 
[IMG]20-02_blinksale_winners_mysql_screenshot.png31-Mar-2017 09:48 29K 
[IMG]21-01_web_app_site_design_ld_img.jpg31-Mar-2017 09:48 54K 
[IMG]21-02_web_app_site_design_preview.jpg31-Mar-2017 09:48 91K 
[IMG]21-03_go_to_tutorial_button.png31-Mar-2017 09:48 4.8K 
[IMG]22-01_winner_announcement_codemyconcept_ld_img.jpg31-Mar-2017 09:48 34K 
[IMG]22-02_codemyconcept_giftcard_sql_query_results.png31-Mar-2017 09:48 26K 
[IMG]23-01_tips_beginning_drupal_dev_ld_img.jpg31-Mar-2017 09:48 30K 
[IMG]23-02_drupalhome.jpg31-Mar-2017 09:48 54K 
[IMG]23-03_aregularsite.jpg31-Mar-2017 09:48 42K 
[IMG]23-04_createpage.jpg31-Mar-2017 09:48 46K 
[IMG]23-05_findthenodenumber.jpg31-Mar-2017 09:48 43K 
[IMG]23-06_errorreporting.jpg31-Mar-2017 09:48 38K 
[IMG]23-07-admin_menu_module.jpg31-Mar-2017 09:48 20K 
[IMG]23-08_flush_cache.jpg31-Mar-2017 09:48 31K 
[IMG]23-09_drupal_content_types.jpg31-Mar-2017 09:48 57K 
[IMG]23-10_drupal_user_roles.jpg31-Mar-2017 09:48 45K 
[IMG]23-11_wheretostorethemes.jpg31-Mar-2017 09:48 14K 
[IMG]23-12_admin_choose_default.jpg31-Mar-2017 09:48 26K 
[IMG]23-13_major_site_info.jpg31-Mar-2017 09:48 32K 
[IMG]23-14_clean_urls.jpg31-Mar-2017 09:48 25K 
[IMG]23-15_ckeditor.jpg31-Mar-2017 09:48 18K 
[IMG]23-16_contactform.jpg31-Mar-2017 09:48 28K 
[IMG]23-17_menus.jpg31-Mar-2017 09:48 33K 
[IMG]23-18_views.jpg31-Mar-2017 09:48 29K 
[IMG]24-01_what_web_design_ld_img.jpg31-Mar-2017 09:48 39K 
[IMG]24-02_what_web_design_550.jpg31-Mar-2017 09:48 239K 
[IMG]24-03_what_web_design_says.jpg31-Mar-2017 09:49 659K 
[IMG]25-01_sponsor_love_nov2010_ld_img.jpg31-Mar-2017 09:48 29K 
[IMG]25-02_trackrecord.jpg31-Mar-2017 09:48 49K 
[IMG]25-03_pagelines.jpg31-Mar-2017 09:48 31K 
[IMG]25-04_squarespace.jpg31-Mar-2017 09:48 30K 
[IMG]26-01_css_tips_tricks_ld_img.jpg31-Mar-2017 09:48 13K 
[IMG]26-02_conditional_comments.png31-Mar-2017 09:48 2.9K 
[IMG]26-03_iphone_friendly.png31-Mar-2017 09:48 26K 
[IMG]26-04_css_layout.jpg31-Mar-2017 09:48 29K 
[IMG]26-05_web_safe.png31-Mar-2017 09:48 18K 
[IMG]26-06_design_build.jpg31-Mar-2017 09:48 22K 
[IMG]27-01_history_css_reset_ld_img.jpg31-Mar-2017 09:48 34K 
[IMG]27-02_paragraph.png31-Mar-2017 09:48 38K 
[IMG]28-01_elegant_patterned_webdesign_ld_img.jpg31-Mar-2017 09:48 36K 
[IMG]28-02_elegant_patterned_webdesign_final_result.jpg31-Mar-2017 09:48 57K 
[IMG]29-01_ecommerce_icons550x250.jpg31-Mar-2017 09:48 54K 
[IMG]29-02_ecommerce_icons_preview.jpg31-Mar-2017 09:48 106K 
[IMG]30-01_which_design_job_best_infographic_ld_img.jpg31-Mar-2017 09:48 26K 
[IMG]30-02_which_design_job_best_infographic_preview.jpg31-Mar-2017 09:48 121K 

Apache/2.2.22 (Ubuntu) Server at sixrevisions.com Port 80